QPF
0.01 0.01 0.02 0.02 0.02 0.02 0.02 0.02 0.03 0.03 0.02 0.01 0.01 0.02 0.02 0.02 0.02 0.02 0.01 0.01 0.00 0.00 0.00 0.01 0.01 0.01 0.03 0.05 0.05 0.04 0.03 0.03 0.02 0.02 0.03 0.03 0.02 0.02
0.02 0.01 0.01 0.01 0.01 0.01 0.01 0.02 0.02 0.02 0.02 0.01 0.01 0.01 0.01 0.01 0.02 0.01 0.01 0.00 0.00 0.00 0.00 0.01 0.01 0.01 0.01 0.02 0.03 0.03 0.02 0.02 0.02 0.02 0.02 0.02 0.02 0.02
0.02 0.01 0.01 0.01 0.01 0.01 0.01 0.02 0.02 0.03 0.02 0.01 0.01 0.01 0.01 0.01 0.01 0.01 0.00 0.00 0.00 0.01 0.01 0.01 0.01 0.01 0.02 0.02 0.01 0.01 0.01 0.01 0.01 0.01 0.01 0.01 0.02 0.02
0.02 0.01 0.01 0.01 0.02 0.01 0.01 0.01 0.01 0.02 0.03 0.02 0.02 0.01 0.02 0.01 0.01 0.01 0.00 0.00 0.01 0.01 0.01 0.01 0.01 0.01 0.01 0.01 0.01 0.02 0.01 0.01 0.01 0.01 0.01 0.01 0.01 0.01
0.01 0.01 0.01 0.01 0.01 0.01 0.01 0.01 0.01 0.02 0.02 0.02 0.01 0.01 0.01 0.01 0.00 0.00 0.00 0.00 0.01 0.02 0.01 0.01 0.01 0.01 0.01 0.01 0.00 0.01 0.01 0.01 0.01 0.01 0.01 0.01 0.01 0.01
0.01 0.01 0.01 0.01 0.01 0.01 0.01 0.01 0.01 0.01 0.01 0.01 0.01 0.01 0.01 0.01 0.01 0.01 0.01 0.00 0.00 0.01 0.01 0.01 0.01 0.01 0.01 0.01 0.01 0.01 0.01 0.01 0.01 0.01 0.01 0.01 0.01 0.01
0.01 0.01 0.01 0.01 0.01 0.01 0.01 0.01 0.01 0.01 0.01 0.01 0.01 0.01 0.01 0.01 0.01 0.02 0.01 0.00 0.00 0.00 0.01 0.01 0.01 0.01 0.01 0.01 0.01 0.01 0.00 0.00 0.01 0.01 0.00 0.00 0.00 0.01
0.01 0.01 0.01 0.01 0.02 0.01 0.01 0.01 0.01 0.01 0.01 0.01 0.01 0.01 0.01 0.01 0.01 0.02 0.02 0.01 0.01 0.00 0.00 0.01 0.01 0.01 0.01 0.01 0.01 0.01 0.00 0.00 0.00 0.00 0.01 0.01 0.00 0.00
0.01 0.01 0.01 0.01 0.01 0.01 0.01 0.00 0.00 0.01 0.01 0.01 0.01 0.01 0.01 0.01 0.02 0.02 0.02 0.01 0.00 0.00 0.00 0.00 0.01 0.01 0.01 0.01 0.01 0.00 0.00 0.00 0.00 0.00 0.00 0.01 0.01 0.00
0.01 0.01 0.01 0.01 0.02 0.02 0.01 0.01 0.01 0.01 0.01 0.01 0.01 0.01 0.01 0.02 0.02 0.02 0.02 0.01 0.00 0.00 0.00 0.00 0.00 0.00 0.00 0.00 0.00 0.00 0.00 0.00 0.00 0.00 0.00 0.00 0.01 0.01
0.03 0.02 0.02 0.02 0.02 0.02 0.01 0.01 0.01 0.01 0.01 0.01 0.01 0.01 0.01 0.02 0.02 0.02 0.01 0.01 0.01 0.00 0.00 0.00 0.00 0.00 0.00 0.00 0.00 0.00 0.00 0.00 0.00 0.00 0.00 0.00 0.00 0.01
0.03 0.03 0.03 0.03 0.03 0.02 0.02 0.01 0.01 0.01 0.00 0.00 0.00 0.01 0.01 0.01 0.02 0.02 0.02 0.02 0.01 0.01 0.00 0.00 0.00 0.00 0.00 0.00 0.00 0.00 0.00 0.00 0.00 0.00 0.00 0.00 0.00 0.00
0.02 0.02 0.01 0.01 0.01 0.01 0.01 0.01 0.01 0.01 0.01 0.01 0.01 0.01 0.01 0.01 0.01 0.01 0.02 0.02 0.02 0.01 0.01 0.01 0.00 0.00 0.00 0.00 0.00 0.00 0.00 0.00 0.00 0.00 0.00 0.01 0.01 0.01
0.01 0.01 0.01 0.01 0.01 0.01 0.01 0.01 0.01 0.01 0.01 0.01 0.01 0.01 0.01 0.01 0.02 0.02 0.01 0.01 0.02 0.02 0.01 0.01 0.01 0.01 0.01 0.00 0.00 0.00 0.00 0.00 0.00 0.00 0.01 0.01 0.02 0.02
0.01 0.01 0.01 0.01 0.01 0.01 0.01 0.02 0.02 0.01 0.01 0.01 0.01 0.01 0.01 0.01 0.01 0.02 0.01 0.01 0.01 0.01 0.01 0.01 0.01 0.01 0.01 0.01 0.00 0.00 0.00 0.00 0.00 0.00 0.01 0.01 0.01 0.02
0.01 0.01 0.01 0.01 0.01 0.01 0.01 0.01 0.01 0.01 0.01 0.01 0.01 0.01 0.01 0.01 0.01 0.01 0.01 0.01 0.01 0.01 0.01 0.01 0.01 0.01 0.01 0.01 0.01 0.01 0.01 0.01 0.01 0.01 0.01 0.01 0.01 0.01
0.02 0.02 0.02 0.02 0.03 0.02 0.02 0.01 0.01 0.01 0.01 0.01 0.01 0.01 0.01 0.01 0.01 0.02 0.02 0.02 0.02 0.02 0.01 0.01 0.01 0.01 0.01 0.01 0.01 0.01 0.01 0.01 0.01 0.01 0.01 0.01 0.02 0.01
0.02 0.01 0.01 0.01 0.01 0.01 0.01 0.01 0.01 0.01 0.01 0.01 0.01 0.01 0.01 0.01 0.01 0.02 0.02 0.02 0.02 0.02 0.02 0.02 0.01 0.01 0.01 0.01 0.01 0.01 0.01 0.01 0.01 0.01 0.01 0.02 0.02 0.02
0.03 0.01 0.01 0.01 0.01 0.01 0.01 0.01 0.01 0.00 0.01 0.01 0.01 0.01 0.01 0.01 0.01 0.01 0.02 0.02 0.02 0.02 0.02 0.02 0.02 0.02 0.01 0.01 0.01 0.01 0.01 0.01 0.01 0.02 0.03 0.03 0.02 0.01
0.03 0.02 0.02 0.01 0.01 0.01 0.01 0.01 0.01 0.01 0.01 0.01 0.01 0.01 0.01 0.01 0.02 0.02 0.02 0.02 0.02 0.02 0.02 0.02 0.02 0.02 0.02 0.02 0.01 0.01 0.01 0.02 0.02 0.02 0.01 0.01 0.01 0.01
0.02 0.02 0.01 0.01 0.01 0.01 0.01 0.01 0.01 0.02 0.01 0.01 0.01 0.01 0.01 0.01 0.02 0.02 0.02 0.02 0.02 0.02 0.01 0.01 0.01 0.02 0.02 0.02 0.02 0.01 0.01 0.01 0.01 0.01 0.01 0.01 0.01 0.01
0.03 0.02 0.02 0.02 0.01 0.01 0.01 0.01 0.01 0.01 0.01 0.01 0.01 0.01 0.01 0.02 0.02 0.02 0.02 0.02 0.02 0.02 0.01 0.01 0.01 0.01 0.02 0.02 0.02 0.02 0.02 0.01 0.01 0.02 0.01 0.01 0.01 0.01
0.03 0.03 0.03 0.02 0.01 0.01 0.01 0.01 0.01 0.01 0.01 0.01 0.01 0.01 0.02 0.02 0.02 0.02 0.02 0.02 0.02 0.01 0.01 0.01 0.01 0.02 0.02 0.02 0.02 0.03 0.02 0.02 0.02 0.02 0.01 0.01 0.01 0.01
MSLP
1020.82 1020.88 1020.98 1021.10 1021.24 1021.39 1021.51 1021.60 1021.65 1021.67 1021.66 1021.64 1021.61 1021.60 1021.60 1021.62 1021.65 1021.68 1021.70 1021.70 1021.68 1021.63 1021.57 1021.49 1021.40 1021.33 1021.26 1021.20 1021.16 1021.12 1021.08 1021.03 1020.98 1020.94 1020.91 1020.90 1020.92 1020.99
1021.01 1021.07 1021.15 1021.26 1021.37 1021.47 1021.56 1021.61 1021.63 1021.62 1021.59 1021.54 1021.49 1021.45 1021.42 1021.41 1021.42 1021.42 1021.43 1021.43 1021.41 1021.38 1021.35 1021.32 1021.30 1021.28 1021.29 1021.30 1021.32 1021.34 1021.34 1021.33 1021.31 1021.27 1021.22 1021.18 1021.17 1021.18
1021.14 1021.21 1021.29 1021.38 1021.47 1021.54 1021.60 1021.63 1021.62 1021.59 1021.53 1021.46 1021.39 1021.32 1021.27 1021.22 1021.19 1021.16 1021.13 1021.10 1021.06 1021.03 1021.00 1020.98 1020.99 1021.02 1021.07 1021.14 1021.21 1021.28 1021.34 1021.36 1021.36 1021.33 1021.28 1021.23 1021.19 1021.16
1021.21 1021.29 1021.37 1021.45 1021.52 1021.58 1021.62 1021.63 1021.61 1021.57 1021.51 1021.43 1021.34 1021.26 1021.18 1021.10 1021.03 1020.96 1020.88 1020.80 1020.73 1020.66 1020.61 1020.59 1020.59 1020.64 1020.71 1020.81 1020.93 1021.04 1021.14 1021.20 1021.23 1021.22 1021.18 1021.12 1021.05 1021.00
1021.19 1021.28 1021.36 1021.44 1021.51 1021.56 1021.60 1021.61 1021.60 1021.56 1021.50 1021.43 1021.34 1021.25 1021.16 1021.06 1020.95 1020.84 1020.72 1020.60 1020.47 1020.36 1020.26 1020.21 1020.19 1020.22 1020.30 1020.42 1020.55 1020.70 1020.82 1020.92 1020.98 1020.99 1020.96 1020.91 1020.83 1020.77
1021.09 1021.18 1021.26 1021.35 1021.43 1021.49 1021.54 1021.56 1021.57 1021.54 1021.50 1021.44 1021.36 1021.28 1021.18 1021.07 1020.95 1020.81 1020.65 1020.48 1020.31 1020.15 1020.00 1019.90 1019.85 1019.85 1019.91 1020.02 1020.17 1020.32 1020.48 1020.60 1020.69 1020.73 1020.72 1020.67 1020.59 1020.51
1020.92 1021.01 1021.10 1021.19 1021.28 1021.36 1021.43 1021.47 1021.48 1021.48 1021.45 1021.41 1021.35 1021.28 1021.20 1021.09 1020.97 1020.82 1020.64 1020.45 1020.24 1020.04 1019.85 1019.70 1019.60 1019.57 1019.60 1019.69 1019.83 1019.99 1020.16 1020.30 1020.41 1020.47 1020.48 1020.44 1020.37 1020.28
1020.69 1020.78 1020.88 1020.98 1021.09 1021.18 1021.26 1021.31 1021.35 1021.35 1021.34 1021.32 1021.28 1021.22 1021.16 1021.07 1020.96 1020.83 1020.65 1020.45 1020.23 1020.00 1019.79 1019.60 1019.47 1019.40 1019.39 1019.46 1019.58 1019.73 1019.90 1020.06 1020.18 1020.26 1020.28 1020.25 1020.18 1020.07
1020.42 1020.51 1020.62 1020.74 1020.86 1020.96 1021.05 1021.11 1021.14 1021.15 1021.14 1021.12 1021.10 1021.07 1021.03 1020.97 1020.90 1020.79 1020.65 1020.47 1020.26 1020.04 1019.81 1019.61 1019.45 1019.35 1019.31 1019.35 1019.44 1019.58 1019.74 1019.89 1020.02 1020.10 1020.13 1020.10 1020.02 1019.90
1020.11 1020.22 1020.34 1020.48 1020.60 1020.72 1020.80 1020.85 1020.87 1020.87 1020.85 1020.84 1020.82 1020.80 1020.80 1020.78 1020.75 1020.70 1020.60 1020.48 1020.31 1020.11 1019.91 1019.71 1019.54 1019.42 1019.36 1019.37 1019.44 1019.55 1019.68 1019.82 1019.93 1020.01 1020.03 1019.99 1019.90 1019.76
1019.77 1019.91 1020.05 1020.20 1020.34 1020.44 1020.52 1020.55 1020.55 1020.53 1020.50 1020.48 1020.47 1020.47 1020.50 1020.53 1020.56 1020.56 1020.54 1020.48 1020.37 1020.23 1020.07 1019.90 1019.74 1019.62 1019.54 1019.52 1019.56 1019.63 1019.73 1019.83 1019.92 1019.97 1019.97 1019.92 1019.81 1019.65
1019.41 1019.58 1019.75 1019.92 1020.06 1020.16 1020.22 1020.23 1020.21 1020.17 1020.13 1020.10 1020.09 1020.12 1020.18 1020.26 1020.35 1020.43 1020.48 1020.50 1020.47 1020.39 1020.28 1020.15 1020.02 1019.91 1019.83 1019.78 1019.79 1019.82 1019.87 1019.93 1019.98 1019.99 1019.96 1019.89 1019.76 1019.59
1019.02 1019.23 1019.43 1019.61 1019.75 1019.85 1019.90 1019.90 1019.87 1019.82 1019.77 1019.75 1019.76 1019.81 1019.91 1020.04 1020.19 1020.33 1020.46 1020.55 1020.59 1020.58 1020.53 1020.45 1020.35 1020.26 1020.18 1020.12 1020.09 1020.08 1020.09 1020.10 1020.09 1020.07 1020.00 1019.90 1019.76 1019.59
1018.62 1018.85 1019.07 1019.26 1019.41 1019.51 1019.56 1019.56 1019.53 1019.49 1019.46 1019.45 1019.49 1019.59 1019.72 1019.90 1020.10 1020.30 1020.48 1020.63 1020.74 1020.79 1020.79 1020.76 1020.70 1020.62 1020.55 1020.48 1020.43 1020.39 1020.35 1020.31 1020.26 1020.18 1020.09 1019.96 1019.81 1019.64
1018.18 1018.43 1018.66 1018.86 1019.01 1019.12 1019.18 1019.20 1019.19 1019.19 1019.20 1019.24 1019.32 1019.46 1019.64 1019.86 1020.10 1020.34 1020.56 1020.74 1020.88 1020.98 1021.02 1021.02 1021.00 1020.95 1020.89 1020.83 1020.76 1020.69 1020.62 1020.54 1020.44 1020.33 1020.20 1020.06 1019.90 1019.74
1017.69 1017.94 1018.17 1018.37 1018.53 1018.65 1018.74 1018.80 1018.85 1018.90 1018.98 1019.09 1019.24 1019.43 1019.66 1019.91 1020.17 1020.42 1020.65 1020.85 1021.00 1021.11 1021.18 1021.21 1021.21 1021.19 1021.15 1021.10 1021.03 1020.95 1020.86 1020.75 1020.62 1020.48 1020.33 1020.17 1020.01 1019.86
1017.13 1017.36 1017.58 1017.77 1017.94 1018.08 1018.21 1018.33 1018.46 1018.61 1018.78 1018.97 1019.20 1019.45 1019.72 1020.00 1020.27 1020.52 1020.73 1020.92 1021.06 1021.17 1021.24 1021.29 1021.32 1021.32 1021.30 1021.27 1021.22 1021.14 1021.04 1020.92 1020.78 1020.62 1020.46 1020.29 1020.12 1019.97
1016.45 1016.65 1016.85 1017.03 1017.21 1017.39 1017.58 1017.78 1018.01 1018.26 1018.54 1018.84 1019.15 1019.47 1019.78 1020.08 1020.35 1020.58 1020.77 1020.92 1021.04 1021.13 1021.20 1021.26 1021.30 1021.33 1021.34 1021.34 1021.31 1021.25 1021.16 1021.04 1020.90 1020.73 1020.55 1020.37 1020.20 1020.04
1015.62 1015.79 1015.96 1016.14 1016.34 1016.56 1016.82 1017.12 1017.46 1017.83 1018.23 1018.64 1019.04 1019.43 1019.79 1020.10 1020.36 1020.57 1020.73 1020.85 1020.94 1021.02 1021.08 1021.14 1021.20 1021.25 1021.30 1021.33 1021.33 1021.30 1021.23 1021.12 1020.97 1020.80 1020.61 1020.42 1020.23 1020.06
1014.63 1014.77 1014.92 1015.11 1015.33 1015.62 1015.96 1016.35 1016.80 1017.30 1017.81 1018.33 1018.83 1019.29 1019.69 1020.03 1020.29 1020.48 1020.62 1020.72 1020.78 1020.84 1020.90 1020.97 1021.05 1021.13 1021.21 1021.28 1021.31 1021.31 1021.25 1021.15 1021.00 1020.82 1020.62 1020.42 1020.21 1020.00
1013.47 1013.60 1013.76 1013.96 1014.23 1014.57 1014.99 1015.49 1016.05 1016.66 1017.29 1017.91 1018.50 1019.03 1019.48 1019.84 1020.12 1020.31 1020.44 1020.53 1020.59 1020.64 1020.71 1020.79 1020.89 1021.01 1021.12 1021.21 1021.27 1021.28 1021.24 1021.15 1021.00 1020.82 1020.60 1020.38 1020.14 1019.91
1012.18 1012.32 1012.50 1012.74 1013.06 1013.47 1013.98 1014.57 1015.23 1015.94 1016.67 1017.38 1018.05 1018.64 1019.14 1019.54 1019.84 1020.06 1020.20 1020.30 1020.37 1020.45 1020.53 1020.64 1020.76 1020.90 1021.04 1021.15 1021.23 1021.26 1021.22 1021.13 1020.98 1020.79 1020.56 1020.31 1020.06 1019.80
1010.82 1010.99 1011.22 1011.51 1011.89 1012.37 1012.96 1013.63 1014.38 1015.18 1015.98 1016.77 1017.51 1018.16 1018.71 1019.15 1019.49 1019.74 1019.92 1020.05 1020.16 1020.26 1020.37 1020.51 1020.66 1020.82 1020.97 1021.10 1021.19 1021.22 1021.19 1021.09 1020.94 1020.74 1020.51 1020.25 1019.98 1019.71
Thickness
5662 5661 5659 5658 5657 5656 5654 5653 5651 5647 5645 5643 5642 5639 5637 5636 5635 5636 5636 5634 5633 5633 5632 5632 5632 5631 5631 5631 5630 5630 5629 5629 5629 5628 5627 5626 5626 5625
5657 5656 5655 5654 5653 5651 5650 5649 5649 5648 5643 5641 5638 5635 5633 5632 5630 5631 5630 5629 5628 5627 5627 5627 5626 5626 5626 5626 5625 5624 5624 5623 5623 5622 5621 5620 5619 5618
5654 5653 5651 5650 5648 5647 5646 5645 5644 5643 5639 5636 5634 5632 5630 5629 5627 5626 5626 5626 5624 5623 5622 5622 5621 5621 5620 5620 5619 5619 5618 5617 5617 5616 5615 5614 5613 5612
5651 5649 5647 5645 5644 5643 5641 5640 5639 5638 5636 5632 5630 5628 5626 5625 5624 5622 5622 5622 5621 5618 5617 5617 5616 5615 5614 5614 5613 5613 5612 5611 5611 5610 5609 5608 5607 5606
5648 5646 5644 5642 5640 5638 5636 5636 5635 5633 5631 5629 5627 5624 5622 5620 5619 5618 5618 5617 5617 5615 5613 5612 5611 5610 5609 5609 5608 5607 5606 5606 5605 5604 5603 5602 5601 5599
5644 5642 5641 5639 5637 5636 5633 5632 5630 5628 5627 5625 5623 5620 5617 5615 5614 5614 5613 5613 5613 5612 5610 5608 5607 5606 5605 5604 5603 5602 5601 5600 5599 5598 5597 5596 5594 5593
5640 5638 5636 5634 5631 5630 5629 5628 5626 5624 5622 5621 5619 5617 5614 5611 5611 5611 5610 5609 5609 5608 5607 5606 5605 5604 5602 5600 5599 5597 5596 5595 5594 5592 5591 5590 5588 5587
5635 5633 5631 5627 5624 5621 5620 5619 5619 5620 5620 5617 5616 5614 5613 5611 5608 5607 5606 5605 5605 5604 5603 5602 5601 5600 5599 5597 5595 5593 5591 5590 5588 5587 5586 5584 5583 5581
5631 5629 5626 5624 5620 5620 5616 5613 5612 5611 5611 5613 5613 5612 5610 5608 5605 5603 5602 5601 5600 5600 5597 5598 5597 5596 5594 5592 5590 5588 5586 5584 5583 5581 5580 5579 5577 5576
5626 5624 5622 5620 5617 5615 5614 5613 5612 5609 5606 5605 5607 5607 5605 5602 5600 5599 5598 5596 5596 5593 5591 5592 5593 5591 5590 5588 5584 5583 5581 5579 5577 5576 5574 5573 5572 5570
5621 5619 5617 5615 5611 5607 5608 5607 5606 5605 5601 5599 5598 5597 5595 5593 5592 5592 5591 5590 5590 5590 5587 5587 5588 5586 5585 5583 5580 5577 5575 5574 5572 5570 5569 5567 5566 5565
5616 5613 5609 5608 5605 5602 5602 5602 5601 5600 5598 5595 5592 5591 5589 5587 5585 5585 5586 5585 5585 5585 5583 5580 5582 5580 5580 5579 5576 5573 5571 5569 5567 5565 5563 5562 5560 5559
5611 5609 5606 5601 5598 5596 5595 5597 5596 5594 5592 5591 5589 5587 5585 5584 5582 5580 5580 5579 5579 5579 5577 5573 5574 5574 5573 5574 5571 5569 5566 5565 5563 5561 5559 5557 5554 5552
5605 5604 5601 5596 5593 5591 5590 5589 5586 5584 5585 5584 5583 5581 5580 5579 5577 5575 5573 5572 5571 5570 5568 5566 5566 5565 5565 5565 5566 5564 5561 5559 5558 5557 5555 5552 5549 5547
5599 5596 5593 5589 5587 5585 5584 5582 5580 5579 5579 5578 5577 5576 5575 5573 5570 5568 5566 5564 5563 5562 5560 5559 5558 5558 5557 5558 5559 5557 5555 5554 5552 5550 5549 5547 5545 5543
5589 5587 5584 5582 5580 5580 5579 5577 5576 5575 5574 5573 5572 5570 5568 5565 5562 5561 5559 5558 5557 5556 5555 5553 5551 5550 5550 5550 5550 5549 5548 5547 5545 5542 5542 5541 5539 5537
5582 5581 5579 5578 5576 5576 5575 5574 5572 5570 5568 5567 5566 5564 5562 5559 5557 5555 5553 5552 5552 5552 5551 5548 5545 5543 5542 5542 5542 5542 5541 5540 5538 5536 5534 5534 5533 5532
5573 5575 5575 5574 5574 5573 5571 5569 5567 5565 5564 5562 5561 5559 5557 5555 5552 5550 5547 5546 5547 5547 5545 5542 5539 5537 5535 5535 5533 5535 5534 5533 5531 5529 5527 5527 5528 5526
5567 5569 5570 5569 5569 5568 5566 5565 5563 5561 5559 5557 5555 5554 5551 5549 5547 5545 5543 5541 5541 5540 5539 5536 5534 5533 5532 5534 5533 5526 5526 5526 5524 5522 5521 5520 5520 5519
5561 5563 5564 5563 5563 5562 5561 5559 5558 5556 5554 5552 5550 5548 5546 5544 5542 5541 5539 5537 5536 5534 5532 5531 5529 5528 5527 5528 5526 5522 5517 5517 5516 5516 5514 5513 5512 5509
5556 5556 5557 5557 5556 5555 5555 5553 5552 5551 5549 5547 5546 5543 5541 5539 5537 5536 5535 5531 5529 5528 5528 5527 5524 5520 5518 5516 5516 5516 5513 5508 5507 5507 5506 5505 5504 5504
5550 5550 5551 5550 5550 5549 5548 5546 5545 5544 5543 5541 5540 5538 5536 5534 5533 5531 5529 5527 5525 5524 5523 5520 5516 5513 5511 5511 5511 5510 5507 5503 5499 5496 5494 5494 5494 5496
5544 5544 5544 5544 5543 5542 5542 5541 5540 5539 5538 5537 5535 5533 5531 5528 5527 5526 5524 5522 5520 5517 5515 5513 5510 5507 5506 5505 5504 5502 5500 5497 5493 5491 5489 5486 5483 5482